Regional Weather Roundup
Issued by NWS

Home | Current Version | Previous Version | Text Only | Print | Product List | Glossary Off
Versions: 1 2 3 4 5 6 7 8 9 10 11 12 13 14 15 16 17 18 19 20 21 22 23 24 25 26 27 28 29 30 31 32 33 34 35 36 37 38 39 40 41 42 43 44 45 46 47 48 49 50

563
ASUS44 KLIX 191310
RWRLA
LOUISIANA WEATHER ROUNDUP
NATIONAL WEATHER SERVICE NEW ORLEANS LA
800 AM CDT SAT APR 19 2014

NOTE: "FAIR" INDICATES FEW OR NO CLOUDS BELOW 12,000 FEET WITH NO
      SIGNIFICANT WEATHER AND/OR OBSTRUCTIONS TO VISIBILITY.
      SKY/WX - SKY CONDITION AND SIGNIFICANT WEATHER.
      TMP - AIR TEMPERATURE.    DP   - DEWPOINT TEMPERATURE.
      RH  - RELATIVE HUMIDITY.  PRES - PRESSURE.
      HX  - HEAT INDEX.         WCI  - WIND CHILL INDEX.

*  THESE STATIONS ARE NOT NWS OR FAA STATIONS AND ARE NOT UNDER
   NWS QUALITY CONTROL.

LAZ040-048-061>063-065-066-069-191400-
SOUTHEAST LOUISIANA

CITY           SKY/WX    TMP DP  RH WIND       PRES   REMARKS
N.O. AUDUBON     N/A     61  54  76 MISG        N/A
N.O. INTL ARPT MOSUNNY   61  54  77 N10       30.15S
N.O. LAKEFRONT SUNNY     61  54  77 N14       30.16R
N.O. DOWNTOWN* FAIR      61  50  67 N6        30.15S
SLIDELL        SUNNY     57  52  83 N7        30.15R
BATON ROUGE    SUNNY     59  53  80 CALM      30.17R
BOOTHVILLE     SUNNY     61  55  81 N7        30.14S
BELLE CHASSE   MOSUNNY   60  53  77 NE3       30.14S
BOGALUSA*        N/A     56  52  85 N5        30.18R
GALLIANO*      SUNNY     59  56  89 N3        30.15S
NEW ROADS*     FAIR      56  55  97 W3        30.18R
GONZALES*      FAIR      57  56  94 NW3       30.16S
HAMMOND*       SUNNY     57  52  82 N5        30.17F
HOUMA*         SUNNY     59  54  82 N7        30.16R
PORT FOURCHON* SUNNY     61  55  82 N9        30.16R

$$

LAZ041-044-053-054-191400-
SOUTHWEST LOUISIANA

CITY           SKY/WX    TMP DP  RH WIND       PRES   REMARKS
LAKE CHARLES   MOSUNNY   60  58  92 E5        30.18R
LAFAYETTE      SUNNY     58  56  93 CALM      30.18R
PATTERSON      SUNNY     61  55  82 N6        30.19S
SALT POINT       N/A     62  56  80 CALM      30.16R
NEW IBERIA     SUNNY     61  54  77 E3        30.19R
CHENAULT AIRPK SUNNY     61  55  82 E3        30.19R

$$

LAZ027-028-191400-
CENTRAL LOUISIANA

CITY           SKY/WX    TMP DP  RH WIND       PRES   REMARKS
FORT POLK      SUNNY     59  56  89 SE6       30.19R
ALEXANDRIA INT SUNNY     58  55  90 CALM      30.18R
ALEXANDRIA     SUNNY     56  54  93 CALM      30.20R

$$

LAZ001-002-191400-
NORTHWEST LOUISIANA

CITY           SKY/WX    TMP DP  RH WIND       PRES   REMARKS
SHREVEPORT     PTSUNNY   57  54  89 CALM      30.19R
BARKSDALE AFB  MOSUNNY   57  55  93 VRB2      30.20R
DTN SHREVEPORT MOSUNNY   56  53  90 CALM      30.20R

$$

LAZ014-016-191400-
NORTHEAST LOUISIANA

CITY           SKY/WX    TMP DP  RH WIND       PRES   REMARKS
MONROE         SUNNY     57  55  93 CALM      30.21R
TALLULAH       SUNNY     59  56  89 NE5       30.20R

$$




USA.gov is the U.S. government's official web portal to all federal, state and local government web resources and services.